[ ตารางข้อมูล ] [ Min-Max ] [ วันนี้2 ] [ วันนี้4 ] [ เทียบ-A 3วัน ] [ เทียบ-B 4วัน ]   

วันนี้2   [ ◀ ช่วงเก่ากว่า ] [ ช่วงที่ 27 ] [ ช่วงใหม่กว่า ▶ ] [ ล่าสุด ]    [ 3 ชั่วโมง ] [ 6 ชั่วโมง ] [ 12 ชั่วโมง ] [ 24 ชั่วโมง ]   วันนี้2

อุณภูมิในตู้ Knockdown4529  ราย 6 ชั่วโมง  ที่วัดได้ ในช่วงวันเวลา 25/08/2026 (10:47) ถึง 25/08/2026 (16:47) 
ความชื้นในตู้ Knockdown4529  ราย 6 ชั่วโมง  ที่วัดได้ ในช่วงวันเวลา 25/08/2026 (10:47) ถึง 25/08/2026 (16:47) 
การใช้ไฟฟ้าในตู้ Knockdown4529  ราย 6 ชั่วโมง  ที่วัดได้ ในช่วงวันเวลา 25/08/2026 (10:47) ถึง 25/08/2026 (16:47) 

  DS18B20SHTC3PZEM-004TWiFi 
IDDate d/m/Y & Timedata1
สูง
data2
ต่ำ
data3
นอก
temp
pcb
hum
pcb
VoltAmpWattrssiTime
 15921  25/08/2026 16:43:54  30.1  30.0  28.1  31.3  65.7  233.6  0.04  4.6  -81  16:43 
 15920  25/08/2026 16:39:13  30.1  30.0  28.2  31.2  65.7  233.4  0.04  4.6  -82  16:39 
 15919  25/08/2026 16:34:16  30.1  30.0  28.2  31.4  65.7  234.4  0.04  4.6  -79  16:34 
 15918  25/08/2026 16:29:33  30.1  30.0  28.2  31.4  65.7  234.7  0.04  4.6  -81  16:29 
 15917  25/08/2026 16:24:49  30.1  30.0  28.2  31.4  65.7  234.7  0.04  4.6  -79  16:24 
 15916  25/08/2026 16:20:05  30.1  30.0  28.1  31.4  65.7  235.2  0.04  4.6  -79  16:20 
 15915  25/08/2026 16:15:19  30.1  30.0  28.0  31.4  65.7  234.7  0.04  4.6  -81  16:15 
 15914  25/08/2026 16:10:33  30.1  30.0  28.0  31.4  65.8  235.3  0.04  4.6  -80  16:10 
 15913  25/08/2026 16:05:50  30.1  30.0  28.0  31.5  65.8  234.7  0.04  4.6  -81  16:05 
 15912  25/08/2026 16:01:05  30.1  30.0  28.2  31.3  65.8  234.3  0.04  4.6  -82  16:01 
 15911  25/08/2026 15:56:21  30.2  30.0  28.0  31.4  65.8  234.5  0.04  4.6  -81  15:56 
 15910  25/08/2026 15:51:36  30.2  30.0  27.9  31.4  65.8  233.1  0.04  4.6  -83  15:51 
 15909  25/08/2026 15:46:52  30.2  30.1  27.8  31.5  65.9  234.8  0.04  4.6  -88  15:46 
 15908  25/08/2026 15:42:09  30.2  30.1  27.7  31.5  65.8  234.5  0.04  4.6  -82  15:42 
 15907  25/08/2026 15:37:25  30.2  30.1  27.7  31.4  65.8  234.6  0.04  4.6  -78  15:37 
 15906  25/08/2026 15:32:42  30.2  30.1  27.9  31.4  65.8  234.5  0.04  4.6  -83  15:32 
 15905  25/08/2026 15:27:57  30.2  30.1  28.0  31.4  65.9  232.8  0.04  4.6  -81  15:27 
 15904  25/08/2026 15:23:07  30.2  30.1  27.9  31.5  66.0  234.8  0.04  4.6  -85  15:23 
 15903  25/08/2026 15:18:24  30.2  30.1  27.7  31.4  66.0  234.7  0.04  4.6  -83  15:18 
 15902  25/08/2026 15:13:40  30.2  30.1  27.6  31.4  66.0  234.8  0.04  4.6  -81  15:13 
 15901  25/08/2026 15:08:57  30.2  30.1  27.5  31.5  66.1  234.7  0.04  4.6  -87  15:08 
 15900  25/08/2026 15:04:13  30.2  30.1  27.4  31.4  66.1  234.6  0.04  4.6  -80  15:04 
 15899  25/08/2026 14:59:28  30.2  30.1  27.4  31.4  66.2  234.7  0.04  4.6  -81  14:59 
 15898  25/08/2026 14:54:43  30.2  30.1  27.3  31.4  66.2  234.9  0.04  4.6  -83  14:54 

Data every 5 minute.


ใช้เวลาประมวลผล 0.02677 วินาที